CCA5948 ZLLL-ZBHH

Flight info

Callsign CCA5948
Flight time N/A
Altitude 31100
Route ADPUX W211 ZWX W219 YHD W217 VIKON W72 OMGEL W64 VALNI
Aircraft A321/M-SADE2E3FGHIJ3J5LM1ORVWY/HB1

Departure

Time 2026-05-06 13:37
Airport Lanzhou Zhongchuan International Airport (ZLLL)

Arrival

Time N/A
Airport Hohhot Baita International Airport (ZBHH)
Time Latitude Longitude Altitude Speed Heading
2026-05-06 13:08 36.50792 103.61729 6403 ft 0 kts 267°
2026-05-06 13:15 36.50793 103.61747 6403 ft 3 kts 268°
2026-05-06 13:15 36.50794 103.61772 6403 ft 3 kts 258°
2026-05-06 13:15 36.50800 103.61793 6403 ft 2 kts 229°
2026-05-06 13:16 36.50811 103.61808 6403 ft 3 kts 210°
2026-05-06 13:16 36.50828 103.61815 6403 ft 3 kts 171°
2026-05-06 13:16 36.50846 103.61811 6403 ft 2 kts 176°
2026-05-06 13:16 36.50848 103.61810 6403 ft 0 kts 177°
2026-05-06 13:25 36.50845 103.61811 6403 ft 1 kts 177°
2026-05-06 13:25 36.50832 103.61812 6403 ft 3 kts 177°
2026-05-06 13:25 36.50808 103.61813 6403 ft 4 kts 177°
2026-05-06 13:25 36.50774 103.61815 6403 ft 6 kts 177°
2026-05-06 13:26 36.50733 103.61818 6403 ft 2 kts 177°
2026-05-06 13:26 36.50732 103.61818 6403 ft 0 kts 177°
2026-05-06 13:28 36.50731 103.61818 6403 ft 1 kts 177°
2026-05-06 13:28 36.50719 103.61819 6403 ft 4 kts 177°
2026-05-06 13:28 36.50671 103.61824 6403 ft 8 kts 159°
2026-05-06 13:29 36.50651 103.61887 6403 ft 9 kts 94°
2026-05-06 13:29 36.50609 103.61929 6403 ft 9 kts 177°
2026-05-06 13:29 36.50540 103.61933 6403 ft 11 kts 177°
2026-05-06 13:29 36.50462 103.61938 6403 ft 12 kts 177°
2026-05-06 13:30 36.50374 103.61944 6403 ft 13 kts 177°
2026-05-06 13:30 36.50277 103.61950 6403 ft 15 kts 177°
2026-05-06 13:30 36.50172 103.61956 6403 ft 16 kts 177°
2026-05-06 13:30 36.50069 103.61962 6403 ft 12 kts 177°
2026-05-06 13:31 36.49981 103.61968 6403 ft 13 kts 177°
2026-05-06 13:31 36.49883 103.61975 6403 ft 15 kts 177°
2026-05-06 13:31 36.49788 103.61980 6403 ft 13 kts 177°
2026-05-06 13:31 36.49717 103.61985 6403 ft 3 kts 177°
2026-05-06 13:32 36.49688 103.61987 6403 ft 5 kts 177°
2026-05-06 13:32 36.49651 103.61989 6403 ft 6 kts 177°
2026-05-06 13:32 36.49603 103.61992 6403 ft 8 kts 177°
2026-05-06 13:32 36.49569 103.61996 6403 ft 4 kts 162°
2026-05-06 13:33 36.49553 103.62026 6403 ft 5 kts 96°
2026-05-06 13:33 36.49553 103.62056 6403 ft 0 kts 87°
2026-05-06 13:34 36.49553 103.62057 6403 ft 1 kts 87°
2026-05-06 13:34 36.49554 103.62068 6403 ft 2 kts 87°
2026-05-06 13:34 36.49555 103.62094 6403 ft 4 kts 87°
2026-05-06 13:34 36.49556 103.62132 6403 ft 5 kts 87°
2026-05-06 13:35 36.49558 103.62177 6403 ft 3 kts 86°
2026-05-06 13:35 36.49567 103.62198 6403 ft 3 kts 33°
2026-05-06 13:35 36.49585 103.62200 6403 ft 0 kts 357°
2026-05-06 13:36 36.49641 103.62197 6403 ft 36 kts 357°
2026-05-06 13:36 36.50158 103.62164 6403 ft 110 kts 357°
2026-05-06 13:36 36.51139 103.62102 6404 ft 169 kts 358°
2026-05-06 13:37 36.52349 103.62068 6917 ft 173 kts
2026-05-06 13:37 36.53546 103.62234 7607 ft 174 kts
2026-05-06 13:37 36.54758 103.62299 8248 ft 174 kts
2026-05-06 13:37 36.55976 103.62234 8645 ft 176 kts 359°
2026-05-06 13:38 36.57199 103.62132 9048 ft 176 kts 360°
2026-05-06 13:38 36.58426 103.62050 9443 ft 178 kts
2026-05-06 13:38 36.59706 103.61976 9666 ft 192 kts
2026-05-06 13:38 36.61099 103.61893 9844 ft 209 kts 360°
2026-05-06 13:39 36.62601 103.61793 10093 ft 224 kts 359°
2026-05-06 13:39 36.63662 103.61725 10215 ft 238 kts 359°
2026-05-06 13:39 36.64793 103.61654 10365 ft 252 kts 359°
2026-05-06 13:40 36.71647 103.60932 10845 ft 336 kts 356°
2026-05-06 13:40 36.74062 103.60674 10936 ft 359 kts 358°
2026-05-06 13:40 36.76602 103.60476 11267 ft 371 kts 358°
2026-05-06 13:41 36.79200 103.60405 11885 ft 374 kts
2026-05-06 13:41 36.81744 103.61023 12534 ft 374 kts 19°
2026-05-06 13:41 36.84034 103.62563 13149 ft 377 kts 37°
2026-05-06 13:41 36.85847 103.64938 13716 ft 382 kts 54°
2026-05-06 13:42 36.86998 103.67942 14258 ft 389 kts 72°
2026-05-06 13:42 36.87559 103.71262 14783 ft 394 kts 78°
2026-05-06 13:42 36.87986 103.74663 15299 ft 398 kts 79°
2026-05-06 13:42 36.88415 103.78097 15803 ft 402 kts 79°
2026-05-06 13:43 36.88894 103.81555 16290 ft 406 kts 77°
2026-05-06 13:43 36.89426 103.85027 16779 ft 409 kts 76°
2026-05-06 13:43 36.89984 103.88533 17235 ft 414 kts 76°
2026-05-06 13:43 36.90544 103.92080 17665 ft 418 kts 76°
2026-05-06 13:44 36.91098 103.95673 18105 ft 423 kts 77°
2026-05-06 13:44 36.91634 103.99305 18529 ft 427 kts 77°
2026-05-06 13:44 36.92168 104.02971 18905 ft 433 kts 77°
2026-05-06 13:44 36.92712 104.06702 19271 ft 438 kts 77°
2026-05-06 13:45 36.93267 104.10459 19671 ft 442 kts 76°
2026-05-06 13:45 36.94405 104.18037 20434 ft 450 kts 77°
2026-05-06 13:45 36.95112 104.21854 20773 ft 452 kts 69°
2026-05-06 13:46 36.96385 104.25426 21112 ft 450 kts 56°
2026-05-06 13:46 36.98263 104.28544 21447 ft 449 kts 45°
2026-05-06 13:46 37.00371 104.31447 21778 ft 452 kts 43°
2026-05-06 13:46 37.02537 104.34327 22107 ft 456 kts 43°
2026-05-06 13:47 37.04703 104.37251 22433 ft 460 kts 44°
2026-05-06 13:47 37.06851 104.40260 22758 ft 464 kts 45°
2026-05-06 13:47 37.08971 104.43324 23070 ft 468 kts 45°
2026-05-06 13:47 37.11110 104.46433 23376 ft 472 kts 45°
2026-05-06 13:48 37.13271 104.49539 23677 ft 475 kts 44°
2026-05-06 13:48 37.15466 104.52655 23970 ft 478 kts 44°
2026-05-06 13:48 37.17681 104.55779 24261 ft 481 kts 44°
2026-05-06 13:48 37.19910 104.58929 24566 ft 484 kts 44°
2026-05-06 13:49 37.22145 104.62104 24857 ft 486 kts 44°
2026-05-06 13:49 37.24382 104.65310 25150 ft 489 kts 44°
2026-05-06 13:49 37.26594 104.68496 25443 ft 491 kts 44°
2026-05-06 13:49 37.28838 104.71728 25728 ft 493 kts 44°
2026-05-06 13:50 37.31098 104.74975 26000 ft 495 kts 44°
2026-05-06 13:50 37.33376 104.78246 26288 ft 497 kts 44°
2026-05-06 13:50 37.35656 104.81512 26642 ft 497 kts 44°
2026-05-06 13:50 37.37934 104.84774 26994 ft 496 kts 44°
2026-05-06 13:51 37.40202 104.88033 27373 ft 495 kts 43°
2026-05-06 13:51 37.42466 104.91292 27725 ft 495 kts 43°
2026-05-06 13:51 37.44737 104.94568 28072 ft 495 kts 43°
2026-05-06 13:51 37.46994 104.97827 28404 ft 495 kts 43°
2026-05-06 13:52 37.49256 105.01092 28738 ft 494 kts 43°
2026-05-06 13:52 37.51518 105.04357 29069 ft 494 kts 43°
2026-05-06 13:52 37.53779 105.07622 29388 ft 494 kts 43°
2026-05-06 13:52 37.56032 105.10883 29706 ft 494 kts 43°
2026-05-06 13:53 37.58230 105.14227 30058 ft 495 kts 45°
2026-05-06 13:53 37.60350 105.17639 30336 ft 496 kts 46°
2026-05-06 13:53 37.62434 105.21047 30560 ft 498 kts 46°
2026-05-06 13:53 37.64544 105.24521 30822 ft 499 kts 46°
2026-05-06 13:54 37.66662 105.28002 31066 ft 500 kts 46°
2026-05-06 13:54 37.68790 105.31478 31285 ft 501 kts 46°
2026-05-06 13:54 37.73058 105.38427 31383 ft 501 kts 46°
2026-05-06 13:55 37.77316 105.45408 31382 ft 501 kts 46°
2026-05-06 13:55 37.81572 105.52410 31380 ft 501 kts 46°
2026-05-06 13:56 37.85812 105.59385 31378 ft 501 kts 46°
2026-05-06 13:56 37.90066 105.66401 31381 ft 501 kts 46°
2026-05-06 13:57 37.94290 105.73394 31397 ft 500 kts 46°
2026-05-06 13:57 37.98521 105.80410 31358 ft 501 kts 46°
2026-05-06 13:58 38.02749 105.87427 31335 ft 501 kts 46°
2026-05-06 13:58 38.06977 105.94464 31311 ft 501 kts 46°
2026-05-06 13:59 38.11167 106.01456 31309 ft 501 kts 46°
2026-05-06 13:59 38.15411 106.08551 31304 ft 501 kts 46°
2026-05-06 14:00 38.19600 106.15577 31322 ft 501 kts 46°
2026-05-06 14:00 38.23810 106.22636 31343 ft 501 kts 46°
2026-05-06 14:01 38.28015 106.29708 31355 ft 501 kts 46°
2026-05-06 14:01 38.32213 106.36795 31370 ft 501 kts 46°
2026-05-06 14:02 38.35692 106.44580 31303 ft 518 kts 66°
2026-05-06 14:02 38.37714 106.53437 31295 ft 522 kts 71°
2026-05-06 14:03 38.39625 106.62346 31307 ft 519 kts 67°
2026-05-06 14:03 38.41098 106.66482 31284 ft 508 kts 52°
2026-05-06 14:03 38.43195 106.70023 31320 ft 497 kts 41°
2026-05-06 14:04 38.47819 106.76486 31277 ft 496 kts 39°
2026-05-06 14:04 38.52448 106.83026 31311 ft 498 kts 41°
2026-05-06 14:05 38.56967 106.89739 31393 ft 498 kts 41°
2026-05-06 14:05 38.61525 106.96410 31378 ft 497 kts 41°
2026-05-06 14:06 38.66113 107.03043 31336 ft 498 kts 41°
2026-05-06 14:06 38.70666 107.09726 31303 ft 499 kts 41°
2026-05-06 14:07 38.75218 107.16427 31337 ft 497 kts 41°
2026-05-06 14:07 38.79771 107.23104 31332 ft 497 kts 41°
2026-05-06 14:08 38.84317 107.29792 31309 ft 497 kts 41°
2026-05-06 14:08 38.88849 107.36492 31277 ft 498 kts 41°
2026-05-06 14:09 38.93388 107.43206 31303 ft 498 kts 41°
2026-05-06 14:09 38.97934 107.49938 31305 ft 499 kts 41°
2026-05-06 14:10 39.02476 107.56696 31285 ft 501 kts 41°
2026-05-06 14:10 39.07030 107.63480 31325 ft 501 kts 41°
2026-05-06 14:11 39.11578 107.70267 31376 ft 500 kts 41°
2026-05-06 14:11 39.16116 107.77061 31404 ft 499 kts 41°
2026-05-06 14:12 39.20642 107.83849 31369 ft 499 kts 41°
2026-05-06 14:12 39.25156 107.90647 31365 ft 498 kts 41°
2026-05-06 14:13 39.29661 107.97423 31299 ft 497 kts 41°
2026-05-06 14:13 39.34131 108.04155 31271 ft 497 kts 41°
2026-05-06 14:14 39.38621 108.10949 31280 ft 497 kts 41°
2026-05-06 14:14 39.43139 108.17797 31297 ft 503 kts 41°
2026-05-06 14:15 39.47694 108.24706 31338 ft 504 kts 41°
2026-05-06 14:15 39.52232 108.31614 31304 ft 504 kts 42°
2026-05-06 14:16 39.56496 108.38913 31318 ft 509 kts 47°
2026-05-06 14:16 39.60617 108.46442 31323 ft 512 kts 47°
2026-05-06 14:17 39.64749 108.53962 31386 ft 511 kts 47°
2026-05-06 14:17 39.68908 108.61464 31357 ft 511 kts 47°
2026-05-06 14:18 39.73028 108.68950 31350 ft 509 kts 47°
2026-05-06 14:18 39.77122 108.76396 31260 ft 510 kts 47°
2026-05-06 14:19 39.81224 108.83905 31239 ft 509 kts 47°
2026-05-06 14:19 39.85331 108.91421 31234 ft 509 kts 47°
2026-05-06 14:20 39.89438 108.98931 31231 ft 511 kts 48°
2026-05-06 14:20 39.93549 109.06516 31243 ft 512 kts 48°
2026-05-06 14:21 39.97641 109.14047 31262 ft 512 kts 48°
2026-05-06 14:21 40.01756 109.21644 31287 ft 513 kts 48°
2026-05-06 14:22 40.05862 109.29256 31304 ft 513 kts 48°
2026-05-06 14:22 40.09975 109.36886 31300 ft 514 kts 48°
2026-05-06 14:23 40.14091 109.44550 31270 ft 515 kts 49°
2026-05-06 14:23 40.18198 109.52215 31331 ft 514 kts 49°
2026-05-06 14:24 40.22295 109.59882 31367 ft 513 kts 49°
2026-05-06 14:24 40.26391 109.67563 31282 ft 516 kts 49°
2026-05-06 14:25 40.29796 109.73963 31297 ft 515 kts 49°
2026-05-06 14:25 40.34550 109.82916 31297 ft 515 kts 49°
2026-05-06 14:26 40.38631 109.90630 31310 ft 516 kts 49°
2026-05-06 14:26 40.41425 109.97614 31303 ft 527 kts 68°
2026-05-06 14:27 40.42243 110.02317 31319 ft 532 kts 82°
2026-05-06 14:27 40.42358 110.07170 31346 ft 532 kts 91°
2026-05-06 14:27 40.42129 110.16891 31346 ft 534 kts 92°
2026-05-06 14:28 40.42031 110.26646 31337 ft 534 kts 90°
2026-05-06 14:28 40.42043 110.36381 31403 ft 534 kts 90°
2026-05-06 14:29 40.41967 110.46120 31399 ft 534 kts 91°
2026-05-06 14:29 40.41905 110.50990 31198 ft 533 kts 91°
2026-05-06 14:29 40.41847 110.55852 30819 ft 533 kts 91°
2026-05-06 14:30 40.41804 110.60705 30419 ft 532 kts 90°
2026-05-06 14:30 40.41771 110.65570 30014 ft 532 kts 90°
2026-05-06 14:30 40.41735 110.70415 29619 ft 531 kts 90°
2026-05-06 14:30 40.41687 110.75263 29223 ft 531 kts 90°
2026-05-06 14:31 40.41627 110.80104 28828 ft 531 kts 91°
2026-05-06 14:31 40.41568 110.84956 28431 ft 531 kts 91°
2026-05-06 14:31 40.41512 110.89801 28034 ft 530 kts 90°
2026-05-06 14:31 40.41458 110.94632 27639 ft 530 kts 90°
2026-05-06 14:32 40.41397 110.99470 27242 ft 530 kts 90°
2026-05-06 14:32 40.41333 111.04315 26845 ft 530 kts 90°
2026-05-06 14:32 40.41270 111.09140 26449 ft 530 kts 90°
2026-05-06 14:33 40.41250 111.10709 26320 ft 530 kts 90°
2026-05-06 14:33 40.40913 111.33837 24212 ft 496 kts 90°
2026-05-06 14:34 40.40866 111.38255 23770 ft 486 kts 89°
2026-05-06 14:34 40.40846 111.42645 23318 ft 475 kts 87°
2026-05-06 14:34 40.41208 111.46893 22856 ft 462 kts 75°
2026-05-06 14:34 40.42187 111.50836 22411 ft 448 kts 62°
2026-05-06 14:35 40.43470 111.54505 21973 ft 438 kts 59°
2026-05-06 14:35 40.44804 111.58055 21525 ft 430 kts 58°
2026-05-06 14:35 40.46114 111.61548 21077 ft 423 kts 59°
2026-05-06 14:35 40.47367 111.65017 20628 ft 417 kts 60°
2026-05-06 14:36 40.48564 111.68464 20179 ft 412 kts 61°
2026-05-06 14:36 40.49729 111.71871 19731 ft 406 kts 61°
2026-05-06 14:36 40.50884 111.75226 19283 ft 400 kts 60°
2026-05-06 14:36 40.52036 111.78523 18835 ft 395 kts 60°
2026-05-06 14:37 40.53185 111.81781 18386 ft 390 kts 60°
2026-05-06 14:37 40.54319 111.84997 17937 ft 385 kts 60°
2026-05-06 14:37 40.55432 111.88173 17490 ft 381 kts 60°
2026-05-06 14:37 40.56527 111.91325 17041 ft 377 kts 60°
2026-05-06 14:38 40.57610 111.94441 16593 ft 373 kts 60°
2026-05-06 14:38 40.58828 111.97416 16134 ft 364 kts 51°
2026-05-06 14:38 40.60419 111.99930 15679 ft 352 kts 37°
2026-05-06 14:38 40.62341 112.01823 15230 ft 340 kts 23°
2026-05-06 14:39 40.64432 112.03191 14789 ft 334 kts 19°
2026-05-06 14:39 40.66568 112.04240 14321 ft 321 kts
2026-05-06 14:39 40.68726 112.04163 13875 ft 306 kts 343°
2026-05-06 14:39 40.70756 112.03391 13450 ft 301 kts 338°
2026-05-06 14:40 40.72790 112.02717 12975 ft 303 kts 347°
2026-05-06 14:40 40.74904 112.02626 12528 ft 307 kts
2026-05-06 14:40 40.76991 112.03289 12151 ft 312 kts 16°
2026-05-06 14:40 40.78972 112.04507 12094 ft 315 kts 21°
2026-05-06 14:41 40.80771 112.06207 12068 ft 326 kts 43°
2026-05-06 14:41 40.81614 112.07851 12065 ft 327 kts 60°
2026-05-06 14:41 40.82337 112.10628 12083 ft 313 kts 71°
2026-05-06 14:41 40.82801 112.13376 12091 ft 301 kts 74°
2026-05-06 14:42 40.83242 112.16041 12041 ft 293 kts 72°
2026-05-06 14:42 40.83779 112.18621 11737 ft 290 kts 68°
2026-05-06 14:42 40.84424 112.21128 11357 ft 288 kts 65°
2026-05-06 14:42 40.85091 112.23608 10985 ft 286 kts 65°
2026-05-06 14:43 40.85718 112.26093 10615 ft 285 kts 67°
2026-05-06 14:43 40.86309 112.28582 10228 ft 283 kts 67°
2026-05-06 14:43 40.86897 112.31051 9860 ft 281 kts 66°
2026-05-06 14:43 40.87494 112.33499 9476 ft 278 kts 66°
2026-05-06 14:44 40.88295 112.35762 9087 ft 266 kts 46°
2026-05-06 14:44 40.89635 112.37262 8902 ft 244 kts 20°
2026-05-06 14:44 40.91241 112.37722 8886 ft 235 kts 355°
2026-05-06 14:45 40.94197 112.36502 8548 ft 212 kts 337°
2026-05-06 14:45 40.95515 112.35694 8251 ft 206 kts 329°
2026-05-06 14:45 40.96491 112.34347 7922 ft 206 kts 301°
2026-05-06 14:45 40.96993 112.32577 7629 ft 205 kts 288°
2026-05-06 14:46 40.97026 112.30691 7317 ft 210 kts 261°
2026-05-06 14:46 40.96492 112.28873 7044 ft 213 kts 250°
2026-05-06 14:46 40.95861 112.27130 6883 ft 213 kts 251°
2026-05-06 14:46 40.95257 112.25307 6875 ft 213 kts 251°
2026-05-06 14:47 40.94597 112.23571 6839 ft 212 kts 255°
2026-05-06 14:47 40.94153 112.21737 6881 ft 204 kts 260°
2026-05-06 14:47 40.93796 112.20012 6857 ft 184 kts 261°
2026-05-06 14:47 40.93456 112.18455 6874 ft 170 kts 260°
2026-05-06 14:48 40.93106 112.16999 6886 ft 164 kts 259°
2026-05-06 14:48 40.92755 112.15568 6892 ft 164 kts 260°
2026-05-06 14:48 40.92418 112.14133 6901 ft 164 kts 261°
2026-05-06 14:48 40.92091 112.12699 6890 ft 162 kts 261°
2026-05-06 14:49 40.91757 112.11269 6904 ft 164 kts 260°
2026-05-06 14:49 40.91414 112.09833 6905 ft 164 kts 260°
2026-05-06 14:49 40.91074 112.08399 6907 ft 164 kts 260°
2026-05-06 14:49 40.90738 112.06963 6895 ft 163 kts 260°
2026-05-06 14:50 40.90406 112.05550 6761 ft 158 kts 260°
2026-05-06 14:50 40.90083 112.04182 6602 ft 153 kts 260°
2026-05-06 14:50 40.89768 112.02842 6414 ft 152 kts 261°
2026-05-06 14:50 40.89457 112.01507 6212 ft 151 kts 260°
2026-05-06 14:51 40.89143 112.00178 6010 ft 151 kts 259°
2026-05-06 14:51 40.88831 111.98859 5813 ft 150 kts 259°
2026-05-06 14:51 40.88523 111.97542 5608 ft 149 kts 260°
2026-05-06 14:51 40.88215 111.96234 5416 ft 149 kts 260°
2026-05-06 14:52 40.87912 111.94948 5217 ft 148 kts 260°
2026-05-06 14:52 40.87607 111.93652 5024 ft 148 kts 259°
2026-05-06 14:52 40.87301 111.92353 4812 ft 147 kts 259°
2026-05-06 14:52 40.86998 111.91062 4625 ft 147 kts 259°
2026-05-06 14:53 40.86696 111.89776 4437 ft 146 kts 258°
2026-05-06 14:53 40.86395 111.88496 4237 ft 146 kts 258°
2026-05-06 14:53 40.86095 111.87218 4042 ft 145 kts 255°
2026-05-06 14:53 40.85796 111.85949 3824 ft 144 kts 255°
2026-05-06 14:54 40.85498 111.84689 3665 ft 144 kts 255°
2026-05-06 14:54 40.85204 111.83433 3594 ft 145 kts 255°
2026-05-06 14:54 40.84910 111.82088 4231 ft 150 kts 256°
2026-05-06 14:54 40.84652 111.80922 5258 ft 120 kts 272°
2026-05-06 14:55 40.84425 111.79707 5114 ft 153 kts 252°
2026-05-06 14:55 40.83657 111.78617 4679 ft 173 kts 210°
2026-05-06 14:55 40.82455 111.78296 4487 ft 179 kts 182°
2026-05-06 14:55 40.81226 111.78578 4722 ft 180 kts 164°
2026-05-06 14:56 40.80022 111.79072 5101 ft 183 kts 159°
2026-05-06 14:56 40.79034 111.80132 5464 ft 186 kts 120°
2026-05-06 14:56 40.78560 111.81692 5877 ft 183 kts 102°
2026-05-06 14:56 40.78198 111.83309 6244 ft 185 kts 100°
2026-05-06 14:57 40.78085 111.84962 6610 ft 180 kts 80°
2026-05-06 14:57 40.78214 111.86604 6864 ft 183 kts 74°
2026-05-06 14:57 40.78434 111.88316 6907 ft 194 kts 73°
2026-05-06 14:57 40.78680 111.90101 6906 ft 200 kts 73°
2026-05-06 14:58 40.78932 111.91905 6900 ft 200 kts 73°
2026-05-06 14:58 40.79186 111.93712 6897 ft 200 kts 73°
2026-05-06 14:58 40.79438 111.95515 6895 ft 199 kts 73°
2026-05-06 14:58 40.79692 111.97315 6894 ft 200 kts 73°
2026-05-06 14:59 40.79948 111.99123 6911 ft 200 kts 73°
2026-05-06 14:59 40.80204 112.00933 6912 ft 200 kts 73°
2026-05-06 14:59 40.80523 112.02718 6909 ft 199 kts 70°
2026-05-06 14:59 40.80862 112.04435 6705 ft 193 kts 69°
2026-05-06 15:00 40.81198 112.06133 6437 ft 188 kts 69°
2026-05-06 15:00 40.81760 112.07613 6141 ft 176 kts 41°
2026-05-06 15:00 40.82788 112.08298 5902 ft 161 kts
2026-05-06 15:00 40.83861 112.08039 5903 ft 157 kts 342°
2026-05-06 15:01 40.84894 112.07565 5903 ft 157 kts 340°
2026-05-06 15:01 40.85922 112.07071 5907 ft 157 kts 340°
2026-05-06 15:01 40.86813 112.06258 5896 ft 160 kts 311°
2026-05-06 15:01 40.87429 112.05023 5909 ft 161 kts 305°
2026-05-06 15:02 40.88001 112.03751 5921 ft 161 kts 304°
2026-05-06 15:02 40.88559 112.02471 5910 ft 162 kts 301°
2026-05-06 15:02 40.88859 112.01011 5908 ft 166 kts 285°
2026-05-06 15:02 40.88900 111.99478 5833 ft 171 kts 267°
2026-05-06 15:03 40.88820 111.98982 5783 ft 168 kts 263°
2026-05-06 15:03 40.88416 111.97093 5534 ft 153 kts 260°
2026-05-06 15:03 40.87999 111.95316 5271 ft 151 kts 259°